User: anonymous   Login
Location: Unspecified
(0.0000°N, 0.0000°E)
Time: 16:39:28
(UTC+00:00)
Language:

Gonets-D1 - Orbit

View from above orbital plane
View from above orbital plane
View from above satellite
View from above satellite

Ground track
Ground track

The orbit data is extracted from the following two-line orbital elements,

1 23788U 96009B   17204.89662033 +.00000038 +00000-0 +15372-3 0  9995
2 23788 082.5678 223.9708 0005115 237.4507 122.6090 12.63139022987954
Epoch (UTC): 23 July 2017 21:31:07
Eccentricity: 0.0005115
inclination: 82.5678°
perigee height: 1406 km
apogee height: 1414 km
right ascension of ascending node: 223.9708°
argument of perigee: 237.4507°
revolutions per day: 12.63139022
mean anomaly at epoch: 122.6090°
orbit number at epoch: 98795

The dashed part of the orbit path shows where the satellite is in the earth's shadow,  

DLR